Milwaukee, WI

11:34 AM CST on November 22, 2019 (GMT -0600)
Gen Mitchell International

Weather History for KMKE - September, 2019

Change the Weather History Date:

Wednesday, September 18, 2019

  Actual Average Record
Temperature  
Mean Temperature 70 °F 62 °F  
Max Temperature 77 °F 71 °F 92 °F (1955)
Min Temperature 63 °F 54 °F 35 °F (1875)
Degree Days  
Heating Degree Days 0 5  
Month to date heating degree days 8 46  
Since 1 July heating degree days 10 72  
Cooling Degree Days 5 2  
Month to date cooling degree days 66 56  
Year to date cooling degree days 672 621  
Growing Degree Days 20 (Base 50)    
Moisture  
Dew Point 62 °F    
Average Humidity 76    
Maximum Humidity 93    
Minimum Humidity 64    
Precipitation  
Precipitation 0.00 in 0.10 in 1.73 in (1972)
Month to date precipitation 5.06 1.89  
Year to date precipitation 33.47 26.07  
Snow  
Snow 0.00 in 0.00 in 0.00 in (2018)
Month to date snowfall 0.0 0.0  
Since 1 July snowfall 0.0 0.0  
Since 1 September snowfall 0.0 0.0  
Snow Depth 0.00 in    
Sea Level Pressure  
Sea Level Pressure 30.09 in    
Wind  
Wind Speed 7 mph ()    
Max Wind Speed 20 mph    
Max Gust Speed 22 mph    
Visibility 9.5 miles    
Events Fog    
T = Trace of Precipitation, MM = Missing Value Source: Averaged Metar Reports

Daily Weather History Graph

Daily Weather History Graph

Search for Another Location

Airport or City:

Astronomy

Sep. 18, 2019 Rise Set
Actual Time 6:34 AM CDT 6:56 PM CDT
Civil Twilight 6:05 AM CDT 7:24 PM CDT
Nautical Twilight 5:32 AM CDT 7:58 PM CDT
Astronomical Twilight 4:58 AM CDT 8:32 PM CDT
Moon 9:24 PM CDT (9/18) 10:42 AM CDT (9/18)
Length of Visible Light 13h 18m
Length of Day
12h 22m
Waning Gibbous, 82% of the Moon is Illuminated
Sep 18
Waning Gibbous
Sep 21
Last Quarter
Sep 28
New
Oct 5
First Quarter
Oct 13
Full

Hourly Weather History & Observations

Time (CDT) Temp. Dew Point Humidity Pressure Visibility Wind Dir Wind Speed Gust Speed Precip Events Conditions
12:52 AM 64.9 °F 62.1 °F 90% 30.13 in 10.0 mi SSE 5.8 mph - N/A   Clear
1:52 AM 64.9 °F 61.0 °F 87% 30.12 in 10.0 mi SSE 5.8 mph - N/A   Clear
2:52 AM 66.0 °F 62.1 °F 87% 30.11 in 10.0 mi South 6.9 mph - N/A   Clear
3:52 AM 64.9 °F 62.1 °F 90% 30.11 in 10.0 mi SSE 5.8 mph - N/A   Clear
4:52 AM 66.0 °F 62.1 °F 87% 30.10 in 9.0 mi South 9.2 mph - N/A   Clear
5:52 AM 64.9 °F 61.0 °F 87% 30.10 in 9.0 mi South 4.6 mph - N/A   Clear
6:52 AM 64.0 °F 61.0 °F 90% 30.10 in 5.0 mi SSE 4.6 mph - N/A Fog Patches of Fog
7:52 AM 64.9 °F 62.1 °F 90% 30.11 in 6.0 mi SSE 5.8 mph - N/A   Scattered Clouds
8:52 AM 68.0 °F 62.1 °F 81% 30.12 in 10.0 mi South 8.1 mph - N/A   Mostly Cloudy
9:52 AM 71.1 °F 62.1 °F 73% 30.14 in 10.0 mi South 6.9 mph - N/A   Scattered Clouds
10:52 AM 73.0 °F 64.0 °F 73% 30.14 in 10.0 mi South 5.8 mph - N/A   Scattered Clouds
11:52 AM 75.0 °F 64.9 °F 71% 30.14 in 10.0 mi ESE 9.2 mph - N/A   Scattered Clouds
12:52 PM 75.9 °F 64.9 °F 69% 30.12 in 10.0 mi ESE 10.4 mph - N/A   Scattered Clouds
1:52 PM 75.9 °F 64.9 °F 69% 30.09 in 10.0 mi SE 13.8 mph - N/A   Scattered Clouds
2:52 PM 75.9 °F 64.0 °F 67% 30.07 in 10.0 mi SE 15.0 mph - N/A   Scattered Clouds
3:52 PM 75.0 °F 64.0 °F 69% 30.06 in 10.0 mi SE 12.7 mph - N/A   Mostly Cloudy
4:52 PM 73.9 °F 63.0 °F 68% 30.06 in 10.0 mi SE 15.0 mph - N/A   Mostly Cloudy
5:52 PM 75.0 °F 62.1 °F 64% 30.04 in 10.0 mi SSE 11.5 mph - N/A   Mostly Cloudy
6:52 PM 73.0 °F 61.0 °F 66% 30.04 in 10.0 mi South 13.8 mph - N/A   Mostly Cloudy
7:52 PM 72.0 °F 61.0 °F 68% 30.04 in 10.0 mi South 10.4 mph - N/A   Mostly Cloudy
8:52 PM 71.1 °F 60.1 °F 68% 30.06 in 10.0 mi South 5.8 mph - N/A   Mostly Cloudy
9:52 PM 70.0 °F 60.1 °F 71% 30.07 in 10.0 mi SSE 6.9 mph - N/A   Mostly Cloudy
10:52 PM 70.0 °F 60.1 °F 71% 30.08 in 10.0 mi Calm Calm - N/A   Mostly Cloudy
11:52 PM 68.0 °F 61.0 °F 78% 30.08 in 10.0 mi SSE 6.9 mph - N/A   Mostly Cloudy